Location: Gilevgi
(36.8751°N, 30.0581°E)
Time: 19:33:28
(UTC+00:00)

IRS-P3 - Pass Details

Date: 22 March 2026
Orbit: 810 x 816 km, 99.0° (Epoch: 20 April)

Event Time Altitude Azimuth Distance (km) Brightness Sun altitude
Rises 17:26:33 0° 203° (SSW) 3,327 7.4 -15.3°
Reaches altitude 10° 17:29:32 10° 221° (SW) 2,400 6.9 -15.9°
Maximum altitude 17:33:16 19° 266° (W) 1,838 6.9 -16.7°
Drops below altitude 10° 17:37:01 10° 311° (NW) 2,409 7.6 -17.4°
Sets 17:40:03 0° 329° (NNW) 3,345 8.0 -18.0°
